Simultaneous Nadir Overpasses (SNOs) Predictions

Prediction of SNOs between METOP-B and NOAA-19 Satellite Orbit:

Table of predicted SNOs for the next 14.0 days since TLE Epoch: 1/6/2024
Index Date (METOP-B) Time (METOP-B) Lat,Lon (METOP-B) SZA (METOP-B ) Date (NOAA-19) Time (NOAA-19) Lat,Lon (NOAA-19) SZA (NOAA-19 ) Distance(km) Time Diff (sec)
1 01/06/2024 22:43:26 80.40,-135.69 103.59 01/06/2024 22:42:18 80.42,-135.56 103.59 2.71 68
2 01/06/2024 23:34:06 -80.43, 31.96 76.38 01/06/2024 23:33:21 -80.44, 32.11 76.37 3.02 45
3 01/07/2024 00:24:46 80.45,-160.45 103.66 01/07/2024 00:24:15 80.44,-160.54 103.64 1.76 31
4 01/07/2024 01:15:26 -80.47, 7.20 76.31 01/07/2024 01:15:18 -80.47, 7.13 76.32 1.41 8
5 01/07/2024 02:06:07 80.47, 174.46 103.68 01/07/2024 02:06:12 80.47, 174.47 103.69 0.48 5
6 01/07/2024 02:56:47 -80.49, -17.89 76.28 01/07/2024 02:57:15 -80.50, -17.85 76.27 0.76 28
7 01/07/2024 03:47:26 80.51, 149.70 103.75 01/07/2024 03:48:07 80.52, 149.83 103.78 2.56 41
8 01/07/2024 04:38:07 -80.51, -42.98 76.26 01/07/2024 04:39:11 -80.52, -42.83 76.22 2.93 64
9 01/18/2024 16:00:17 -80.34, 144.22 78.52 01/18/2024 15:59:11 -80.34, 144.30 78.52 1.68 66
10 01/18/2024 16:50:57 80.35, -48.33 101.50 01/18/2024 16:50:04 80.35, -48.27 101.49 1.07 53
11 01/18/2024 17:41:38 -80.36, 119.12 78.50 01/18/2024 17:41:09 -80.35, 118.97 78.52 2.83 29
12 01/18/2024 18:32:18 80.37, -73.43 101.52 01/18/2024 18:32:01 80.38, -73.27 101.53 3.19 17
13 01/18/2024 19:22:58 -80.40, 94.33 78.44 01/18/2024 19:23:05 -80.40, 94.30 78.44 0.74 7
14 01/18/2024 20:13:38 80.41, -98.20 101.58 01/18/2024 20:13:58 80.41, -98.27 101.58 1.31 20
15 01/18/2024 21:04:19 -80.42, 69.24 78.42 01/18/2024 21:05:02 -80.43, 69.30 78.40 1.38 43



Historial Predications of SNOs between METOP-B and NOAA-19
